Temp_Advection
nan nan nan nan nan nan nan nan nan nan nan nan nan nan nan nan nan nan nan nan nan nan nan nan nan nan nan nan nan nan nan nan nan nan nan nan nan nan nan nan nan nan nan nan nan nan nan nan nan
nan -0 -1 -1 -1 0 -1 -0 -2 -1 -0 -0 -1 -1 -1 -1 -1 -1 -0 -0 -0 -0 -0 -0 -0 -0 0 0 1 0 0 0 -0 -0 -0 -0 -0 -1 -1 -1 -1 -1 -1 -0 -0 0 0 -1 nan
nan -0 -1 -0 1 -1 -0 -2 -1 -0 0 -0 -0 -1 -1 -0 -1 -0 -0 -0 -0 -0 -0 -0 -0 -0 -0 -0 -0 -0 -0 -0 -1 -1 -1 -1 -1 -1 -1 -1 -1 -1 -1 -0 -0 -0 0 0 nan
nan -1 -1 0 -1 -1 -1 -1 -1 -1 -0 -1 -1 -1 -0 -0 -0 -0 -0 -0 -0 -0 -0 -1 -1 -1 -1 -1 -1 -1 -1 -1 -1 -1 -1 -1 -1 -2 -2 -2 -2 -2 -1 -1 -1 -1 -1 0 nan
nan -1 -0 0 -1 -0 -1 -0 -0 -0 -0 -0 -1 -1 -1 -0 -0 -0 -0 -0 -0 -0 -0 -0 -1 -1 -1 -1 -1 -1 -2 -2 -2 -2 -1 -2 -2 -1 -2 -2 -2 -2 -2 -3 -2 -1 -1 -1 nan
nan -0 0 0 -1 -0 -0 -0 -0 -1 -1 -1 -1 -1 -1 -0 -0 -0 -0 -0 -0 -0 0 0 0 0 0 -0 -1 -1 -1 -1 -1 -2 -1 -1 -2 -1 -1 -1 -1 -2 -2 -2 -4 -4 -2 -1 nan
nan -0 1 -1 -1 -0 -0 -0 -0 -0 -0 -0 -0 -1 -1 -0 -0 -0 -0 -0 0 0 0 0 0 0 0 -0 -0 -0 -0 -0 -0 0 1 1 1 1 0 -0 -0 -2 -1 -0 -1 -3 -4 -3 nan
nan -0 0 -0 -1 -0 -0 -0 0 -0 -1 -0 -0 -0 -1 -0 -0 -0 -0 -0 0 0 0 0 0 0 0 -0 -0 0 0 0 0 0 -0 -0 1 0 -0 -0 -0 -0 -0 -1 -1 -1 -2 -4 nan
nan -0 -0 -0 -0 -1 -0 -0 -1 -0 0 -0 -1 -1 -1 -0 -0 -0 -0 -0 0 0 0 0 0 -0 -0 -0 -0 -0 -0 -0 -0 -1 -2 -3 -2 -2 -1 -0 -1 -0 -0 -1 -1 -1 -1 -1 nan
nan -0 -1 -1 -1 -1 -0 -0 -0 -0 -1 -1 -1 -0 -0 0 0 -0 -0 -0 -0 -0 -0 -0 0 -0 -0 -0 -0 -0 -0 -0 -0 -0 -1 -2 -2 -1 -1 -1 -1 -1 -0 -0 -1 -1 -2 -1 nan
nan -0 -0 -1 -1 -0 -0 -0 -0 -1 -0 -1 -1 -0 -0 -0 0 0 -0 -0 -0 -0 0 -0 -0 -0 -0 -0 -0 -0 -0 -0 -0 0 0 0 -1 -1 -1 -1 -1 -1 -0 -0 -0 -1 -2 -3 nan
nan -0 -1 -0 0 -0 -0 -0 0 -0 -1 -0 -0 -0 -0 -0 -0 -0 -0 -0 -0 -0 0 0 -0 0 -0 -0 -0 -0 -0 -0 -0 0 0 0 0 -0 -1 -0 -1 -0 -1 -0 0 -0 -1 -2 nan
nan -0 -0 0 0 0 -0 0 -1 -1 -0 -0 -0 -0 -0 -0 -0 -0 -0 -0 -0 -0 0 0 0 0 0 -0 -0 -0 -0 -0 0 -0 0 0 0 -0 -0 -0 -0 -1 -0 -0 0 -0 -0 -1 nan
nan 0 -0 -0 -0 0 -0 -0 -0 -0 -0 -0 -0 -0 -0 -0 -0 -0 -0 -0 0 0 -0 0 0 0 0 -0 -0 -0 -0 -0 -0 -0 0 0 0 -0 -0 -0 -1 -1 -0 -1 -0 -0 -0 -0 nan
nan -0 0 0 0 0 -0 -0 -0 -0 -0 -0 -0 -0 -0 -0 -0 -0 -0 0 0 -0 -0 -0 -0 0 0 -0 0 0 -0 -0 -0 -0 -0 0 -0 0 -0 -0 -1 -1 -1 -1 -1 -0 -0 -0 nan
nan -0 -0 0 -0 0 0 0 -1 -0 -0 -0 -0 -0 -0 -0 -0 -0 -0 0 -0 -0 -0 -0 -0 -0 -0 0 0 -0 -0 -0 -0 -0 -0 -0 -0 -0 -0 -0 -0 -1 -1 -1 -0 -1 -0 -0 nan
nan -0 -0 -0 0 -0 0 -0 -0 -0 -0 -1 -0 -0 -0 -0 -0 -0 -0 -0 -0 -0 -0 -0 0 0 -0 -0 -0 -0 -0 -0 -0 -0 -0 -0 -0 -0 -0 -1 -1 -1 -1 -1 -1 -0 -0 -0 nan
nan -0 -0 -0 -0 -0 -0 0 -1 -0 -0 -0 -0 -0 -0 -0 -0 -0 -0 -0 -0 -0 -0 -0 0 0 0 -0 -0 -0 -0 -0 -0 -0 -0 -0 -0 -0 -0 -0 -1 -1 -1 -1 -1 -1 -1 -0 nan
nan 0 0 -0 -1 0 -0 -0 -1 -1 -0 -0 -0 -0 -0 -0 -0 -0 0 0 -0 0 -0 -0 -0 0 -0 -0 -0 -0 -0 -0 -0 -0 -0 -0 -0 -0 -0 -0 -1 -0 -0 -1 -1 -1 -1 -0 nan
nan 0 0 -0 -0 -0 -0 -0 0 -1 -0 -0 -0 -0 0 -0 -0 -0 -0 0 0 0 -0 -0 -0 0 0 -0 -0 -0 -0 -0 -0 -0 -0 -0 0 0 -1 -1 -0 -0 -0 -0 -0 -0 -0 -0 nan
nan 0 0 0 0 0 0 -1 -0 -1 -1 -0 -0 0 0 -0 0 -0 -0 0 0 0 -0 -0 -0 0 0 -0 -0 -0 -0 -1 -1 -0 -0 -0 -0 -0 -0 -0 -0 -0 -0 -0 -0 0 -0 -0 nan
nan -0 -0 -0 0 -0 0 -0 0 -0 -0 -0 0 0 0 0 0 -0 0 -0 0 -0 0 -0 0 0 0 0 -0 -0 -0 -0 -0 -0 -0 -0 -0 -1 0 -0 0 -0 -0 -0 0 0 0 -0 nan
nan 0 0 0 0 -0 0 -0 -1 -0 -0 -0 -0 0 0 0 0 0 -0 -0 -0 -0 -0 0 0 0 -0 -0 -0 -0 -0 -0 -0 -0 -0 -0 -0 -0 -0 -0 -0 -0 -0 -0 0 0 0 -0 nan
nan 0 0 0 1 0 -1 -0 -0 -0 -0 -1 -0 -0 -0 0 0 -0 -0 -0 -0 -0 -0 -0 -0 -0 -0 -0 -0 -0 -0 -0 -0 -0 -0 -0 -0 -0 -0 -0 -0 -0 -0 -0 0 -0 -0 -0 nan
nan 0 0 0 0 -1 -0 0 -0 0 0 0 -1 -0 -0 0 0 -0 -0 -0 -0 -0 -0 -0 -0 -0 -0 -0 -0 -0 -0 -0 -0 -0 -0 -0 -0 -0 -0 -0 -0 -0 -0 -0 -0 -0 -0 -0 nan
nan 0 -0 -0 -0 0 0 -0 0 0 -0 -0 0 -0 -0 -0 0 -0 -0 -0 -0 -0 -0 -0 -0 -0 -0 -0 -0 -0 -0 -0 -0 -0 -0 -0 -0 -0 -0 -0 -0 -0 -0 -0 -0 -0 -0 -0 nan
nan -0 -0 0 -0 -0 -0 -0 0 0 0 0 0 -0 -0 -0 -0 -0 -0 -0 -0 -0 -0 -0 -0 -0 -0 -0 -0 -0 -0 -0 -0 -0 -0 -0 -0 0 -0 -0 -0 -0 -0 -0 -0 -0 -0 -0 nan
nan 0 0 0 1 -0 -1 1 0 0 0 0 0 0 -0 -0 -0 -0 -0 -0 0 -0 -0 -0 -0 -0 -0 -0 -0 -0 -0 -0 -0 -0 -0 -0 0 0 1 -0 -0 -0 -0 -0 -0 -0 -0 -0 nan
nan -0 -1 -0 0 -0 -0 0 -0 0 -0 0 0 0 0 -0 -0 -0 -0 -0 -0 -0 -0 -0 -0 -0 -0 -0 -0 -0 -0 -0 -0 -0 -0 -0 0 0 1 -0 -0 -0 -0 -0 -0 -0 -0 -0 nan
nan nan nan nan nan nan nan nan nan nan nan nan nan nan nan nan nan nan nan nan nan nan nan nan nan nan nan nan nan nan nan nan nan nan nan nan nan nan nan nan nan nan nan nan nan nan nan nan nan
Wind_Speed
2 2 5 7 7 8 4 9 16 12 8 18 18 19 21 20 10 7 8 7 8 10 13 20 21 20 21 22 22 23 23 22 21 21 21 22 23 22 22 22 19 17 17 19 22 20 21 24 22
1 6 11 12 11 12 8 8 18 16 18 14 19 20 20 18 18 14 8 8 8 9 13 19 20 20 22 22 22 23 23 24 24 23 23 22 21 22 21 21 22 20 18 17 20 24 27 27 27
2 3 13 7 11 8 5 16 15 15 6 7 8 14 8 9 11 8 8 8 8 10 13 17 20 18 22 23 23 23 23 23 23 24 25 25 24 21 20 21 23 22 20 19 18 19 25 26 29
7 13 13 8 12 15 14 13 15 14 12 12 18 13 10 9 8 9 8 7 8 10 11 19 23 22 22 26 26 24 24 25 26 26 27 26 25 24 25 22 19 21 24 23 21 20 20 23 28
12 15 10 4 9 13 12 15 14 10 10 8 13 10 11 12 12 9 8 7 8 9 10 12 20 20 20 28 29 25 27 27 27 28 29 28 25 26 24 25 25 24 21 22 24 23 22 21 22
16 18 10 7 13 11 11 6 8 14 15 17 22 18 11 10 9 8 7 7 8 9 12 14 15 19 19 25 30 26 27 26 26 27 29 29 25 25 24 26 26 26 25 26 24 24 24 23 21
12 11 12 14 11 9 7 9 12 13 9 10 10 13 13 10 7 6 6 6 7 13 17 18 18 19 19 19 26 23 23 23 24 26 29 30 26 25 26 26 26 28 28 26 27 26 26 23 23
9 8 12 4 10 8 7 8 7 11 11 8 4 8 15 10 8 6 5 6 8 11 14 20 20 21 21 20 22 21 22 23 25 27 31 32 30 27 30 28 27 27 27 27 27 27 27 26 20
9 6 10 6 12 13 14 11 11 9 10 13 17 20 16 12 9 7 5 6 7 8 12 17 21 23 22 18 23 23 22 24 27 30 34 34 32 28 30 28 28 28 27 26 26 28 27 26 23
7 7 9 11 14 18 17 12 12 12 15 15 16 14 12 10 8 6 4 5 5 7 10 13 19 23 23 21 24 23 22 26 26 28 34 37 33 29 28 29 27 26 27 27 28 29 27 26 29
7 5 9 12 20 21 17 15 13 16 11 12 13 13 11 9 7 4 4 5 6 7 10 13 15 21 24 23 22 22 22 26 25 25 28 35 33 32 34 34 32 30 30 29 29 34 36 32 29
10 13 15 16 16 17 16 16 13 8 14 13 13 12 10 8 5 4 3 5 6 8 11 12 15 20 22 23 23 22 22 23 24 24 26 34 32 33 33 34 31 30 30 30 36 33 32 35 33
15 15 15 15 14 12 16 11 13 15 13 13 12 10 8 6 4 3 3 4 6 9 10 13 15 18 22 24 25 23 22 26 23 24 27 29 32 33 32 32 31 31 25 34 41 36 36 35 33
13 15 14 12 13 11 13 13 12 13 13 12 10 9 8 5 3 2 4 5 6 9 10 15 15 17 23 23 23 21 21 25 22 24 26 26 32 30 34 31 31 25 33 39 38 36 37 34 33
19 14 11 10 11 7 13 10 9 15 14 11 9 9 7 4 2 2 4 4 5 7 10 13 13 18 23 22 22 20 20 23 22 24 24 28 35 30 28 28 29 35 39 31 33 33 33 36 30
9 11 8 9 8 5 8 6 19 17 14 12 13 10 7 5 2 2 3 3 5 7 10 12 14 17 24 20 20 20 22 22 23 23 25 30 31 26 32 38 31 37 33 32 31 36 35 36 41
11 4 10 9 12 7 9 10 16 17 15 14 13 11 9 7 4 3 2 3 4 8 10 11 14 17 21 17 18 19 21 22 24 24 25 29 26 29 36 35 36 32 33 32 32 32 33 37 39
4 12 11 8 13 9 11 13 17 19 17 15 14 13 10 7 4 3 1 2 3 8 9 11 14 17 17 17 17 19 21 23 25 26 26 26 26 31 37 34 35 31 29 30 30 32 33 34 33
11 6 4 7 14 9 12 12 16 21 20 17 15 13 9 8 5 3 2 1 4 7 8 11 13 16 17 19 20 21 23 24 24 25 25 27 26 29 36 34 37 31 28 31 34 31 33 29 32
5 4 4 11 7 8 11 12 12 23 21 20 17 14 12 10 8 7 2 1 3 5 7 10 13 15 15 18 17 20 21 23 23 24 25 25 25 30 32 34 35 29 29 31 32 30 25 30 31
6 7 7 1 8 9 11 16 15 17 22 20 18 14 13 11 9 7 3 1 3 4 6 9 13 14 15 17 17 22 22 24 25 25 25 21 29 32 31 34 31 29 29 29 30 27 27 31 31
5 5 3 3 4 3 9 5 15 15 16 19 18 15 12 11 9 4 2 2 2 2 6 9 13 13 14 17 19 20 22 24 24 25 24 26 30 30 30 36 30 28 29 29 28 26 26 28 30
6 4 5 5 6 8 7 3 8 16 15 14 19 19 14 12 10 7 4 3 1 5 5 9 12 12 14 16 18 18 21 21 22 24 24 27 32 31 30 34 29 28 32 28 27 25 26 27 28
10 5 3 4 6 3 11 7 6 8 13 16 21 20 18 14 11 7 5 3 2 1 5 9 11 11 14 16 16 18 20 21 21 24 25 28 33 34 32 32 27 30 30 27 26 25 26 28 26
8 8 1 2 2 5 5 9 9 5 3 7 17 21 19 16 13 9 6 2 5 2 4 8 9 11 14 15 16 17 19 19 20 23 24 30 33 33 33 29 28 31 29 26 25 25 26 27 27
11 11 4 3 2 2 7 4 2 12 10 7 13 19 19 16 12 8 5 4 3 2 3 6 8 11 13 14 15 16 18 18 19 21 23 28 29 31 32 27 27 30 28 25 25 25 25 27 26
9 9 8 4 4 2 3 5 5 8 8 6 6 16 17 15 12 8 7 5 4 2 3 6 9 10 12 13 14 16 17 17 19 20 22 26 28 30 30 27 29 30 27 24 24 25 26 28 27
4 4 2 1 4 4 5 10 2 9 7 8 9 12 16 14 12 9 8 8 6 4 3 6 9 10 11 12 13 14 16 16 17 19 21 25 28 29 30 29 30 30 29 24 25 26 27 27 28
3 2 5 5 1 2 3 2 5 6 7 7 10 12 14 13 11 11 9 9 7 4 3 6 9 9 10 11 12 14 15 15 16 18 20 23 28 28 30 29 30 31 31 23 26 27 27 27 29
9 6 5 4 4 2 2 4 3 2 9 13 13 12 13 12 12 12 11 10 8 5 4 5 8 8 9 10 11 13 14 15 16 18 19 20 26 31 34 29 29 31 31 27 28 29 29 28 30
Wind_Direction
343 124 359 260 253 242 109 85 115 125 79 71 65 75 75 53 27 78 104 55 31 18 332 357 6 10 11 12 10 10 8 6 3 359 355 351 348 347 348 344 341 335 317 293 278 279 280 270 270
218 255 269 273 240 284 67 107 71 80 100 92 87 90 75 76 81 92 73 52 38 30 339 4 12 21 22 18 16 13 11 8 8 5 0 356 351 346 343 339 337 336 332 317 295 277 275 274 270
346 266 266 234 260 23 71 73 96 105 109 106 103 67 57 100 65 99 80 60 43 33 357 10 17 24 25 21 17 14 13 11 9 6 3 358 354 351 345 338 332 329 326 325 316 301 279 274 270
307 255 236 243 51 37 88 104 115 105 85 82 117 91 77 79 94 103 83 58 41 38 34 357 12 20 16 15 12 11 12 11 9 8 6 3 359 355 352 347 336 327 323 318 315 313 302 293 272
259 268 266 217 79 91 95 124 146 105 107 92 132 96 102 96 104 99 79 57 50 38 34 22 1 14 11 3 4 9 10 8 7 6 5 3 1 357 357 353 350 344 332 321 314 310 310 301 294
286 251 281 284 114 107 101 92 104 92 101 103 98 109 102 118 108 99 82 60 49 27 28 23 16 11 12 358 354 6 4 5 4 2 1 4 1 356 355 354 349 346 343 341 330 316 307 307 303
287 296 282 106 117 123 97 100 116 128 129 82 137 101 131 124 117 101 71 55 26 19 8 12 15 9 18 9 349 3 1 0 2 360 358 4 360 359 352 353 348 348 346 341 339 339 326 306 308
291 288 271 169 150 127 129 101 120 121 84 98 111 141 147 137 125 102 86 47 28 21 9 355 6 5 18 12 350 0 0 356 357 355 355 0 1 1 352 350 348 345 343 342 342 334 336 328 312
296 265 282 85 168 127 139 134 81 96 119 82 72 101 120 132 124 100 105 44 35 15 14 356 352 360 10 5 354 358 357 351 351 350 349 356 360 359 350 348 346 341 341 339 337 337 334 336 312
298 339 36 44 78 130 144 142 140 132 116 106 102 108 120 124 115 100 83 54 39 20 13 4 350 347 5 6 355 357 353 343 348 350 345 346 354 356 346 348 344 341 339 335 336 334 330 319 317
5 61 86 78 104 132 135 135 147 140 141 140 133 131 128 119 107 101 72 49 30 18 5 3 357 341 359 9 348 359 356 340 346 351 342 337 347 351 343 345 347 344 339 335 334 338 330 326 321
94 78 92 104 120 127 145 144 158 141 113 131 136 135 131 121 114 85 58 33 25 10 352 354 355 345 355 4 344 359 358 336 0 348 339 339 338 346 345 341 349 343 341 320 319 329 327 318 317
98 100 107 117 127 122 135 145 102 105 120 130 136 136 134 132 126 86 55 36 17 7 349 350 357 348 347 355 348 3 351 335 357 344 340 340 334 344 339 351 347 344 321 319 320 326 325 331 326
127 120 116 118 111 140 126 114 127 137 140 139 146 149 152 139 105 89 37 21 8 2 355 351 357 343 339 356 352 353 348 341 352 343 343 334 334 344 345 347 346 323 321 320 326 336 333 328 323
128 123 120 132 143 141 136 163 176 157 162 153 167 178 156 149 147 66 26 16 3 359 355 0 355 343 337 358 357 350 343 353 346 345 344 333 338 343 339 336 333 327 324 333 333 331 326 327 327
139 149 159 157 164 142 194 222 132 163 172 176 192 180 186 174 137 91 13 6 2 346 2 360 352 344 344 359 348 349 348 351 344 344 341 335 347 335 330 330 328 329 339 339 335 330 328 326 325
186 249 209 167 195 160 221 127 162 174 186 195 195 181 190 165 178 179 7 8 2 347 6 359 348 345 348 354 348 344 349 350 346 342 343 343 344 329 333 339 338 343 337 338 335 330 332 329 328
216 215 187 188 189 185 210 262 157 183 193 205 197 199 178 187 192 142 16 338 359 345 5 355 349 345 349 346 359 345 353 352 347 343 342 346 340 335 342 341 341 341 337 340 338 334 332 331 330
286 290 184 191 153 201 236 228 175 184 205 208 208 199 192 187 168 156 262 324 3 345 355 356 351 347 350 350 1 349 356 351 349 346 350 350 343 339 341 340 340 351 346 343 341 340 333 337 343
276 244 162 91 131 218 255 237 240 178 200 210 208 204 201 187 195 184 173 307 339 344 350 0 352 350 350 358 355 352 356 349 346 350 353 354 341 341 340 345 351 354 352 348 347 347 345 345 350
225 228 152 264 150 226 282 273 224 182 191 207 210 211 201 200 206 183 168 225 340 344 357 1 354 353 348 357 355 356 355 352 352 355 356 354 339 338 348 351 356 355 354 355 352 354 350 346 349
222 103 358 156 196 282 188 312 188 199 188 198 206 208 209 194 191 158 193 172 356 2 351 355 358 351 353 356 360 359 355 355 352 352 355 349 338 352 355 350 359 359 360 358 357 356 354 353 350
72 123 171 216 240 280 260 241 267 184 196 198 199 203 201 210 185 189 164 142 90 30 7 355 2 354 357 360 0 354 354 356 356 356 356 345 345 357 355 355 1 6 1 0 359 0 2 360 359
118 152 181 240 244 249 225 199 275 205 210 193 189 197 193 191 175 160 150 133 127 31 358 4 360 359 360 2 1 357 355 357 360 359 1 349 351 357 352 357 11 8 4 4 5 5 5 4 6
172 175 212 220 188 237 161 195 270 80 55 214 171 182 179 173 168 170 171 182 120 58 4 11 7 8 4 5 3 358 358 1 2 2 3 348 354 356 352 2 15 8 7 7 9 10 7 10 9
200 199 152 229 258 80 134 218 64 108 105 40 149 159 157 160 163 164 147 136 138 113 349 4 24 17 8 7 3 358 358 6 4 5 0 351 357 358 352 10 17 10 10 11 15 15 10 12 11
186 231 234 228 317 300 253 144 101 117 122 141 135 142 149 156 155 161 153 144 140 143 358 12 32 21 8 9 4 359 1 9 6 7 3 355 357 360 355 17 19 11 9 14 17 17 14 16 14
302 218 163 127 187 232 254 196 151 163 154 160 151 153 147 153 152 158 152 151 162 115 353 42 31 18 10 7 5 2 7 10 9 9 6 358 359 360 0 18 19 11 12 20 23 21 17 16 16
176 111 43 89 100 251 289 110 298 131 143 146 142 151 150 154 156 155 158 153 156 131 74 40 30 16 14 8 2 4 11 15 13 13 10 3 1 2 6 19 17 12 14 27 25 23 19 17 18
231 162 143 160 191 217 277 269 219 160 160 154 162 160 157 158 162 159 160 159 151 135 90 46 37 16 13 9 359 7 17 16 17 14 12 11 1 4 8 18 16 14 19 30 29 23 19 20 22
Height
1500 1500 1501 1502 1502 1481 1483 1505 1508 1520 1528 1537 1536 1538 1548 1550 1552 1565 1571 1571 1570 1568 1562 1559 1555 1551 1548 1546 1543 1540 1537 1534 1531 1529 1526 1523 1520 1518 1515 1513 1511 1509 1507 1506 1506 1505 1504 1503 1503
1500 1499 1502 1496 1496 1488 1503 1501 1515 1524 1533 1537 1540 1544 1549 1558 1562 1567 1570 1571 1570 1568 1562 1558 1555 1552 1549 1546 1543 1540 1537 1533 1530 1527 1525 1522 1519 1517 1514 1511 1509 1507 1505 1504 1502 1502 1501 1500 1500
1501 1500 1501 1489 1482 1502 1505 1514 1525 1533 1536 1537 1544 1548 1553 1562 1564 1568 1570 1571 1569 1567 1562 1559 1555 1552 1550 1547 1544 1541 1537 1534 1531 1528 1524 1521 1518 1516 1514 1511 1507 1505 1503 1501 1499 1497 1496 1496 1494
1501 1499 1495 1491 1499 1506 1508 1521 1529 1535 1539 1541 1546 1555 1562 1564 1566 1568 1570 1569 1568 1566 1564 1559 1555 1552 1549 1547 1544 1540 1537 1534 1530 1527 1524 1520 1517 1514 1511 1509 1506 1504 1501 1498 1496 1494 1493 1490 1490
1501 1496 1489 1486 1505 1512 1519 1526 1530 1532 1538 1542 1544 1556 1563 1567 1568 1569 1569 1568 1567 1565 1563 1561 1557 1553 1551 1547 1544 1541 1537 1534 1531 1527 1524 1521 1517 1515 1512 1508 1505 1501 1498 1496 1493 1491 1489 1487 1486
1497 1491 1493 1488 1509 1517 1524 1529 1529 1536 1544 1548 1551 1557 1565 1568 1568 1568 1568 1568 1566 1564 1562 1560 1558 1555 1553 1550 1545 1542 1538 1535 1532 1529 1524 1520 1519 1515 1513 1509 1505 1501 1497 1493 1490 1488 1486 1485 1483
1495 1487 1489 1497 1516 1522 1530 1533 1536 1541 1543 1547 1550 1556 1564 1567 1568 1568 1567 1568 1566 1564 1562 1560 1558 1555 1553 1552 1548 1544 1541 1538 1533 1529 1524 1520 1517 1514 1511 1507 1503 1499 1496 1492 1489 1487 1483 1481 1479
1500 1492 1488 1490 1514 1526 1534 1536 1541 1542 1549 1551 1552 1552 1562 1566 1568 1568 1568 1568 1567 1565 1564 1560 1558 1555 1553 1552 1548 1545 1542 1538 1533 1528 1524 1520 1516 1512 1509 1506 1503 1500 1496 1491 1488 1485 1482 1478 1476
1500 1496 1489 1492 1500 1523 1533 1539 1545 1549 1552 1553 1554 1555 1562 1566 1567 1568 1570 1569 1569 1568 1565 1562 1558 1555 1553 1552 1548 1545 1542 1538 1533 1528 1523 1519 1514 1510 1507 1504 1502 1499 1494 1489 1486 1481 1479 1476 1471
1499 1494 1506 1504 1509 1520 1532 1539 1546 1550 1554 1558 1560 1562 1564 1566 1568 1569 1570 1570 1570 1569 1567 1564 1560 1556 1553 1551 1548 1545 1542 1538 1534 1529 1524 1519 1515 1512 1508 1503 1500 1497 1493 1488 1482 1478 1474 1471 1467
1502 1503 1511 1514 1518 1526 1533 1541 1545 1548 1552 1557 1561 1563 1565 1567 1568 1570 1570 1570 1570 1570 1567 1565 1562 1556 1553 1550 1548 1544 1542 1538 1534 1530 1525 1520 1515 1511 1506 1501 1496 1493 1490 1485 1479 1475 1470 1467 1464
1514 1514 1516 1522 1526 1530 1536 1540 1543 1544 1552 1557 1561 1564 1566 1568 1569 1570 1570 1570 1570 1569 1567 1564 1561 1557 1554 1550 1547 1544 1542 1539 1534 1532 1527 1520 1514 1510 1505 1501 1497 1493 1489 1482 1476 1473 1469 1464 1460
1520 1524 1526 1528 1531 1534 1538 1540 1543 1551 1556 1560 1562 1564 1566 1568 1569 1570 1570 1569 1569 1569 1567 1564 1561 1557 1554 1551 1547 1545 1543 1540 1536 1533 1527 1520 1514 1510 1505 1500 1496 1493 1485 1479 1474 1469 1464 1460 1456
1525 1528 1532 1533 1536 1539 1540 1546 1548 1555 1558 1561 1563 1565 1566 1567 1569 1569 1569 1569 1569 1569 1566 1564 1562 1558 1554 1550 1548 1546 1544 1539 1535 1532 1529 1521 1514 1510 1504 1500 1496 1488 1483 1478 1473 1466 1461 1457 1453
1527 1532 1536 1539 1540 1541 1543 1549 1546 1554 1558 1561 1563 1564 1565 1566 1568 1569 1569 1569 1569 1568 1565 1564 1562 1559 1554 1551 1549 1547 1544 1539 1535 1531 1527 1519 1514 1509 1503 1499 1493 1487 1482 1475 1470 1465 1460 1455 1450
1529 1532 1537 1539 1542 1545 1545 1537 1546 1552 1556 1560 1560 1562 1564 1565 1567 1567 1569 1568 1568 1566 1565 1563 1560 1558 1554 1552 1550 1547 1543 1539 1535 1531 1525 1518 1514 1507 1502 1498 1492 1485 1479 1474 1468 1463 1456 1451 1446
1527 1524 1527 1538 1540 1544 1546 1540 1547 1552 1555 1556 1557 1559 1562 1563 1565 1566 1568 1568 1569 1566 1565 1563 1560 1557 1554 1551 1549 1546 1542 1540 1535 1530 1524 1519 1514 1506 1501 1495 1490 1484 1478 1473 1468 1462 1456 1448 1441
1515 1520 1514 1527 1538 1540 1542 1540 1541 1549 1552 1552 1554 1556 1559 1562 1564 1564 1567 1567 1567 1566 1565 1564 1562 1558 1554 1550 1547 1544 1541 1539 1535 1529 1523 1519 1512 1505 1500 1495 1489 1483 1477 1472 1466 1460 1455 1449 1440
1510 1506 1509 1515 1527 1537 1536 1534 1535 1542 1548 1550 1550 1553 1557 1560 1562 1564 1565 1566 1567 1566 1565 1563 1561 1558 1553 1550 1546 1543 1541 1537 1534 1528 1524 1519 1511 1505 1499 1494 1488 1482 1476 1471 1465 1459 1453 1447 1440
1510 1512 1513 1520 1528 1537 1530 1530 1525 1533 1541 1544 1547 1549 1553 1557 1560 1562 1563 1565 1566 1565 1565 1564 1561 1557 1553 1550 1547 1543 1541 1537 1533 1528 1524 1520 1511 1504 1499 1493 1487 1481 1476 1471 1464 1459 1452 1447 1442
1512 1512 1515 1523 1528 1532 1534 1529 1520 1525 1534 1540 1543 1546 1550 1554 1557 1559 1561 1563 1565 1564 1564 1564 1560 1557 1554 1550 1546 1542 1540 1536 1532 1528 1524 1518 1510 1505 1499 1493 1487 1481 1476 1470 1465 1460 1454 1447 1442
1513 1514 1517 1524 1532 1532 1530 1533 1518 1518 1527 1533 1539 1544 1547 1550 1554 1558 1561 1562 1563 1563 1563 1563 1560 1557 1555 1550 1546 1542 1539 1535 1532 1528 1524 1517 1510 1504 1498 1493 1487 1482 1477 1471 1465 1460 1455 1449 1443
1519 1518 1523 1526 1530 1529 1531 1540 1519 1509 1519 1525 1533 1539 1544 1549 1552 1557 1559 1561 1563 1563 1563 1562 1560 1558 1554 1550 1546 1543 1539 1536 1532 1528 1523 1516 1510 1504 1499 1493 1487 1482 1476 1471 1466 1460 1456 1451 1445
1518 1523 1527 1527 1528 1542 1530 1532 1528 1510 1510 1516 1526 1534 1541 1546 1551 1555 1558 1560 1562 1563 1562 1562 1560 1558 1553 1550 1547 1543 1539 1536 1532 1527 1522 1515 1509 1503 1498 1492 1488 1483 1477 1471 1466 1462 1457 1452 1447
1519 1526 1544 1548 1546 1547 1512 1523 1514 1508 1509 1510 1519 1529 1537 1543 1549 1554 1557 1559 1561 1562 1562 1561 1559 1556 1553 1550 1547 1543 1540 1536 1533 1528 1522 1515 1510 1504 1499 1493 1488 1483 1478 1473 1468 1463 1458 1453 1448
1519 1522 1544 1550 1534 1520 1514 1529 1512 1504 1515 1518 1518 1527 1535 1542 1548 1553 1556 1558 1560 1561 1560 1560 1558 1555 1552 1550 1547 1544 1539 1536 1533 1529 1523 1518 1513 1507 1501 1494 1490 1485 1480 1474 1469 1465 1460 1456 1451
1516 1525 1517 1531 1528 1536 1519 1510 1511 1514 1521 1524 1525 1529 1535 1542 1547 1553 1555 1558 1560 1560 1560 1559 1558 1555 1552 1549 1548 1544 1540 1537 1534 1530 1525 1519 1515 1509 1502 1496 1491 1487 1481 1475 1471 1467 1462 1457 1452
1519 1516 1533 1532 1551 1548 1524 1509 1513 1520 1523 1524 1528 1531 1536 1542 1547 1552 1555 1557 1559 1560 1560 1559 1557 1555 1552 1550 1548 1544 1541 1538 1535 1531 1527 1521 1516 1510 1504 1498 1493 1488 1483 1477 1472 1469 1465 1460 1454
1525 1529 1544 1551 1557 1541 1534 1525 1523 1516 1521 1526 1530 1533 1537 1542 1547 1551 1555 1557 1559 1559 1560 1557 1557 1555 1552 1551 1548 1545 1541 1539 1536 1532 1529 1524 1518 1512 1506 1500 1496 1490 1484 1478 1474 1470 1466 1462 1457
1519 1534 1545 1547 1553 1555 1549 1535 1523 1520 1522 1525 1530 1534 1538 1542 1547 1550 1554 1556 1559 1560 1559 1557 1556 1555 1553 1551 1548 1545 1542 1539 1537 1534 1530 1527 1521 1515 1509 1503 1498 1493 1487 1481 1477 1472 1469 1464 1459